Flag for France Weather past 2 weeks in Nîmes, France

Now
73 °F

Clear.


Feels Like: 77 °F
Forecast: 56 / 76 °F
Wind: 13 mph from Northeast

Location: Nimes / Garons

Current Time: Oct 2, 2014 at 1:27:34 PM

Latest Report: Oct 2, 2014 at 1:00 PM


Visibility: N/A

Pressure: 30.24 "Hg

Humidity: 53%

Dew point: 55 °F

Location of NîmesLocation

Historic Weather in Nîmes — Graph

°F

Nîmes temperature yesterday

Maximum temperature yesterday: 81 °F (at 2:30 PM)
Minimum temperature yesterday: 59 °F (at 8:00 AM)
Average temperature yesterday: 70 °F

Past Weeks' High & Low Weather Summary

 TemperatureHumidityPressure
High84 °F (Sep 21, 5:00 PM)88% (Sep 18, 2:30 AM)30.30 "Hg (Sep 18, 2:30 AM)
Low52 °F (Sep 25, 6:30 AM)30% (Sep 27, 4:30 PM)29.80 "Hg (Sep 17, 5:00 PM)
Average67 °F64%30.08 "Hg
* Reported Sep 17 12:00 Noon — Oct 2 12:30 PM, Nîmes, Weather by CustomWeather, © 2014

Note: Actual official high and low records may vary slightly from our data, if they occured in-between our weather recording intervals... More about our weather records

Advertising

Nîmes weather history for previous 24 hours

 ConditionsComfort  
Time TempWeatherWind HumidityBarometerVisibility
12:30 PM
Oct 2
73 °FClear.13 mph53%30.24 "HgN/A
12:00 PM73 °FClear.13 mph53%30.24 "HgN/A
11:30 AM72 °FClear.14 mph57%30.24 "HgN/A
11:00 AM72 °FClear.13 mph57%30.24 "HgN/A
10:30 AM70 °FClear.9 mph57%30.24 "HgN/A
10:00 AM70 °FClear.8 mph53%30.24 "HgN/A
9:30 AM68 °FClear.9 mph56%30.24 "HgN/A
9:00 AM66 °FClear.7 mph52%30.24 "HgN/A
8:30 AM64 °FClear.7 mph56%30.24 "HgN/A
8:00 AM63 °FClear.7 mph59%30.21 "HgN/A
7:30 AM61 °FClear.7 mph63%30.21 "HgN/A
7:00 AM61 °FClear.7 mph63%30.21 "HgN/A
6:30 AM63 °FClear.7 mph56%30.21 "HgN/A
6:00 AM63 °FClear.8 mph59%30.21 "HgN/A
5:30 AM63 °FClear.8 mph59%30.21 "HgN/A
4:30 AM64 °FClear.8 mph56%30.21 "HgN/A
4:00 AM64 °FClear.8 mph56%30.21 "HgN/A
3:30 AM66 °FClear.9 mph52%30.21 "HgN/A
3:00 AM66 °FClear.10 mph52%30.21 "HgN/A
2:30 AM66 °FClear.9 mph52%30.21 "HgN/A
2:00 AM66 °FClear.9 mph52%30.21 "HgN/A
1:30 AM66 °FClear.8 mph52%30.21 "HgN/A
1:00 AM66 °FClear.9 mph52%30.21 "HgN/A
12:30 AM68 °FClear.7 mph53%30.21 "HgN/A
12:00 AM68 °FClear.6 mph56%30.21 "HgN/A
11:30 PM
Oct 1
68 °FClear.8 mph56%30.21 "HgN/A
10:30 PM68 °FClear.6 mph60%30.21 "HgN/A
10:00 PM70 °FClear.8 mph53%30.21 "HgN/A
9:30 PM70 °FMild.8 mph53%30.21 "HgN/A
9:00 PM70 °FClear.12 mph53%30.21 "HgN/A
8:30 PM72 °FClear.8 mph57%30.21 "HgN/A
8:00 PM72 °FClear.7 mph57%30.18 "HgN/A
7:30 PM73 °FClear.5 mph53%30.18 "HgN/A
7:00 PM75 °FClear.5 mph54%30.18 "HgN/A
6:30 PM77 °FClear.7 mph51%30.18 "HgN/A
6:00 PM79 °FClear.9 mph48%30.18 "HgN/A
5:30 PM79 °FClear.9 mph48%30.18 "HgN/A
5:00 PM81 °FClear.12 mph42%30.18 "HgN/A
4:30 PM81 °FClear.10 mph42%30.18 "HgN/A
4:00 PM81 °FClear.12 mph42%30.18 "HgN/A
3:30 PM81 °FClear.12 mph42%30.18 "HgN/A
3:00 PM81 °FClear.13 mph42%30.18 "HgN/A
2:30 PM81 °FPassing clouds.10 mph42%30.21 "HgN/A
2:00 PM79 °FClear.13 mph45%30.21 "HgN/A
1:30 PM79 °FClear.14 mph45%30.21 "HgN/A
1:00 PM79 °FClear.14 mph45%30.24 "HgN/A
Weather by CustomWeather, © 2014

See weather overviewHow to use our weather pages